RH
36 37 40 40 39 38 38 37 36 36 35 33 31 29 26 26 24 23 25 25 27 29 29 30 32 33 34 36 36 35 35 36 37 38 40 43 46 48 50 51 51 52
37 36 37 38 39 39 39 39 38 37 36 35 33 28 25 26 25 25 25 26 28 29 30 32 34 34 34 35 35 34 35 38 37 37 40 42 45 47 49 51 52 52
37 36 37 39 40 40 40 40 40 38 36 35 33 28 27 29 27 27 27 25 27 30 31 32 34 34 34 34 34 34 36 39 39 39 40 41 44 46 48 49 50 50
36 35 37 40 42 42 42 42 40 38 36 35 31 29 32 32 28 28 29 27 28 31 32 33 34 33 33 32 32 33 35 39 40 39 40 41 43 45 46 47 48 47
38 37 37 41 45 46 45 43 40 38 37 36 32 31 34 33 30 30 31 29 29 31 32 34 34 33 33 32 31 32 35 39 40 38 39 40 42 43 42 42 43 42
45 43 40 44 48 48 47 43 40 40 39 37 34 35 36 33 31 32 32 29 29 29 32 34 34 34 34 33 31 30 32 36 38 37 37 38 39 40 39 38 37 37
47 45 43 49 51 49 47 43 41 41 41 39 36 36 36 32 31 33 31 30 29 30 32 34 34 35 35 35 31 28 28 31 33 33 33 33 31 32 32 32 32 33
44 44 47 53 52 49 48 45 43 43 43 41 38 37 35 31 31 32 31 30 30 31 33 34 34 35 35 34 30 26 26 27 28 28 28 28 27 26 26 26 27 27
42 46 51 54 52 49 50 49 45 44 43 42 40 37 34 31 30 30 30 30 30 31 32 33 33 32 31 29 26 23 22 23 24 24 24 24 25 25 25 24 25 25
43 48 53 54 51 50 53 53 49 45 42 41 40 36 33 32 29 28 30 31 30 31 31 32 31 27 22 21 18 17 16 18 19 18 18 18 19 20 20 20 21 21
44 48 52 52 49 50 53 54 51 48 43 40 39 36 32 31 29 30 32 32 31 31 30 29 27 21 16 14 12 12 12 14 16 15 14 14 14 15 15 15 16 15
45 48 52 51 49 49 52 53 52 52 49 42 38 34 30 30 31 32 33 32 31 29 27 25 22 19 16 11 10 12 12 14 15 14 13 13 13 13 13 12 12 11
50 53 54 50 49 50 52 53 52 53 52 45 37 31 28 28 31 31 31 30 30 28 26 24 21 20 17 12 11 13 14 15 15 14 13 13 13 12 11 10 9 8
58 61 59 53 50 53 55 54 52 51 53 49 37 28 27 28 29 30 30 29 29 27 27 26 23 21 18 14 12 14 15 16 15 14 13 13 12 11 9 8 7 6
60 62 61 57 54 55 55 53 51 51 52 49 37 26 27 31 30 30 31 29 29 29 28 27 24 22 20 15 13 15 17 17 15 13 13 11 10 8 7 6 6 5
59 60 59 59 56 55 53 52 53 53 50 48 40 28 28 32 30 29 31 31 30 30 28 25 23 22 21 17 15 17 17 17 15 12 10 8 7 6 6 5 5 5
60 59 58 57 54 52 52 53 56 54 49 48 45 34 29 31 29 27 27 28 29 28 24 20 20 22 21 18 18 18 17 17 15 11 8 6 6 5 5 5 5 5
61 61 58 56 53 52 53 55 57 54 48 48 49 38 30 31 29 26 25 26 27 26 21 17 17 20 21 19 18 19 18 16 14 10 7 5 5 5 5 5 5 5
63 63 60 57 54 54 55 57 57 52 45 46 48 40 31 28 26 25 24 25 26 24 20 16 16 18 20 19 19 20 19 16 12 10 8 6 5 5 5 5 5 4
63 64 63 60 56 55 56 57 56 51 44 44 46 41 33 27 23 22 23 23 26 25 21 17 16 17 18 18 19 20 19 15 11 9 9 8 6 5 5 5 5 5
62 65 65 63 59 57 57 57 57 52 46 44 45 41 36 30 24 21 21 21 24 26 22 18 17 17 17 17 17 19 18 15 12 10 10 9 8 6 5 5 5 5
61 65 66 66 64 60 58 59 59 55 48 46 45 41 39 35 27 23 21 21 23 25 22 19 17 17 16 15 15 16 18 16 13 13 11 10 8 7 6 7 7 6
60 64 67 69 67 63 61 62 62 58 51 47 45 42 41 39 32 26 22 21 21 23 21 20 18 18 17 15 13 14 16 16 13 13 12 10 8 6 6 7 7 6
59 63 66 69 69 67 65 64 64 62 55 48 46 44 42 41 37 31 25 22 21 22 22 20 19 18 18 16 13 13 14 14 12 10 10 8 7 6 6 6 7 7
63 67 68 69 70 69 68 66 66 65 60 52 47 46 45 43 42 37 30 24 21 21 22 21 20 19 19 17 14 12 12 12 10 9 8 7 6 6 6 6 6 7
68 72 73 72 72 71 70 69 68 67 65 57 50 47 47 45 44 41 35 29 24 21 21 22 21 20 19 18 15 12 12 12 10 8 8 9 8 6 5 6 6 6